| time (UTC) | temp F | wind direction | speed MPH | gust MPH | rain 1hr in | rain 24hr in | rain mn in | humidity % | barometer mb |
| 20260503181619 | 77 | 49 | 1.0 | 13.0 | 0.00 | 0.00 | 0.00 | 42 | 1019.9 |
| 20260503160138 | 74 | 94 | 2.0 | 8.0 | 0.00 | 0.00 | 0.00 | 47 | 1021.2 |
| 20260503054608 | 55 | 134 | 0.0 | 0.0 | 0.00 | 0.00 | 0.00 | 83 | 1019.3 |
| 20260503053045 | 55 | 134 | 0.0 | 0.0 | 0.00 | 0.00 | 0.00 | 82 | 1019.2 |
| 20260503051533 | 55 | 134 | 0.0 | 0.0 | 0.00 | 0.00 | 0.00 | 81 | 1019.2 |
| 20260503050059 | 55 | 134 | 0.0 | 0.0 | 0.00 | 0.00 | 0.00 | 80 | 1019.2 |
| 20260503034645 | 57 | 134 | 0.0 | 0.0 | 0.00 | 0.00 | 0.00 | 73 | 1019.2 |
| 20260503031617 | 58 | 134 | 0.0 | 0.0 | 0.00 | 0.00 | 0.00 | 71 | 1019.1 |
| 20260503030055 | 59 | 134 | 0.0 | 0.0 | 0.00 | 0.00 | 0.00 | 68 | 1019.0 |
| 20260503023146 | 61 | 134 | 0.0 | 0.0 | 0.00 | 0.00 | 0.00 | 65 | 1018.8 |
| 20260503020135 | 62 | 134 | 0.0 | 0.0 | 0.00 | 0.00 | 0.00 | 61 | 1018.5 |
| 20260503013135 | 65 | 134 | 0.0 | 0.0 | 0.00 | 0.00 | 0.00 | 55 | 1018.3 |
| 20260503011646 | 67 | 134 | 0.0 | 0.0 | 0.00 | 0.00 | 0.00 | 49 | 1018.1 |
| 20260502234508 | 73 | 219 | 0.0 | 4.0 | 0.00 | 0.00 | 0.00 | 39 | 1017.7 |
| 20260502231543 | 74 | 123 | 0.0 | 6.0 | 0.00 | 0.00 | 0.00 | 39 | 1017.6 |
| 20260502230055 | 75 | 138 | 0.0 | 7.0 | 0.00 | 0.00 | 0.00 | 36 | 1017.6 |
| 20260502224633 | 75 | 94 | 1.0 | 4.0 | 0.00 | 0.00 | 0.00 | 38 | 1017.7 |
| 20260502213022 | 76 | 234 | 0.0 | 6.0 | 0.00 | 0.00 | 0.00 | 38 | 1017.9 |
| 20260502200122 | 74 | 229 | 1.0 | 4.0 | 0.00 | 0.00 | 0.00 | 37 | 1018.8 |
| 20260502194518 | 74 | 36 | 0.0 | 4.0 | 0.00 | 0.00 | 0.00 | 40 | 1019.0 |